Showing default

IHOPSAT-TD, 44859

Orbit data source: Space-Track

IHOPSAT-TD, 44859 is a payload satellite owned by Hera Systems (US) in LEO that was launched on Wed, 11 Dec 2019 UTC via a PSLV-QL launch vehicle from the Sirharikota (SRI). Payload-class satellites include a variety of spacecraft equipped with specific instruments for various scientific and technological missions. These include communications satellites like Starlink; space stations such as the ISS; scientific satellites like the Hubble; Earth observation satellites from companies like Planet Labs, Umbra, and HawkEye 360; GPS; miniature CubeSats for education and research; and military/defense satellites.

Loading next visibility...
Identifier
44859, 2019-089H
Orbit
LEO
Last TLE update
10 hours ago
Origin
Manufacturer
Hera Systems
Mission
Operational Commercial Imaging
Bus & Motor
CUBESAT 12U, Unknown motor
Mass
22 kg wet, 22 kg dry
Launch date (UTC)
2019-12-11 (5 years ago)
Launch vehicle
PSLV-QL
Launch site
Sirharikota (SRI)
Object type
Payload
Rocket body
Debris
Shape & HBR
Box, Unknown HBR
Radar Cross Section
0.080 m², Small (<0.1 m²)

Expand to show TLE details & history

TLE from 10 hours ago
0 IHOPSAT-TD
1 44859U 19089H   25128.93069314  .00003974  00000-0  25345-3 0  9995
2 44859  36.9680 309.2827 0004643 165.2480 194.8401 15.08716935296917
Epoch: 2025-05-08T22:20Z
Definitive object data (Epoch: 2025-05-08T22:20:11.887Z)
Latitude
0.00001°
Longitude
107.23906°
Altitude
542.345 km
Speed
7.592 km/s
True Right ascension
20h 37m 07s
True Declination
0° 00' 00"
Sunlit
Object was in daylight at TLE epoch
Visualization TLE readout
Latitude
32.52295°
Longitude
-132.67754°
Altitude
538.472 km
Speed
7.6 km/s
Apparent Right ascension
04h 35m 01s
Apparent Declination
-1° 59' 02"
Sunlit
Object is in daylight
Visualization observer readout
Local Sidereal Time
16:32:07
Azimuth
358.821° N
Elevation
-52.062°
Doppler factor
1
Orbital elements
Apogee altitude
546.251 km
Perigee altitude
539.824 km
Semi-major axis
6,921.174 km
Eccentricity
0.0004643
Inclination
36.968°
RAAN
309.2827°
Arg. of periapsis
165.248°
True anomaly
194.82648°
Mean anomaly
194.8401°
Eccentric anomaly
194.83329°
Mean motion
3.76941 °/min
BSTAR
0.00025345
Orbital period
95.51 mins
Loading maneuver chart data...
Loading SW <> Apogee altitude chart data...
Loading historical data...
Loading historical data...
Loading historical data...
Loading historical data...
Loading historical data...
Loading historical data...
Loading historical data...

IHOPSAT-TD Visibility forecast

Observer location: undefined°, undefined°

Span
Click to sort rows by Start time (UTC) header in descending order
Start Az.
Max El. time (UTC)
Max El. Az.
Max El.
End time (UTC)
End Az.
6 mins2025-05-09 16:02:58.403Z221.419° SW2025-05-09 16:05:58.403Z168.34° S27.624°2025-05-09 16:08:58.403Z104.699° ESE
6 mins2025-05-09 17:43:58.403Z248.872° W2025-05-09 17:46:58.403Z152.052° SSE38.612°2025-05-09 17:49:58.403Z100.898° ESE
5 mins2025-05-09 19:24:58.403Z251.259° W2025-05-09 19:26:58.403Z196.226° SSW34.326°2025-05-09 19:29:58.403Z126.479° SE
|